This is the latest recevied weather packets stored in our database for station/object JF7BTK-10. If no packets are shown the sender has not sent any weather packets the latest 10 day(s).
| Time | Temp. | Humidity | Pressure | Rain* | Wind** | Luminosity | Snow |
|---|---|---|---|---|---|---|---|
| 1778100399 | 15° C | 65% | 1007.7 hPa | 0 mm | - | - | - |
| 1778098598 | 12.78° C | 70% | 1007.5 hPa | 0 mm | - | - | - |
| 1778097700 | 12.22° C | 72% | 1007.4 hPa | 0 mm | - | - | - |
| 1778096799 | 11.67° C | 75% | 1007.5 hPa | 0 mm | - | - | - |
| 1778095898 | 11.11° C | 77% | 1007.7 hPa | 0 mm | - | - | - |
| 1778095000 | 10.56° C | 76% | 1007.8 hPa | 0 mm | - | - | - |
| 1778094100 | 11.11° C | 75% | 1007.9 hPa | 0 mm | - | - | - |
| 1778093199 | 11.11° C | 74% | 1007.9 hPa | 0 mm | - | - | - |
| 1778092299 | 11.67° C | 75% | 1008.2 hPa | 0 mm | - | - | - |
| 1778091400 | 11.11° C | 76% | 1008.3 hPa | 0 mm | - | - | - |
| 1778090500 | 11.11° C | 77% | 1008.3 hPa | 0 mm | - | - | - |
| 1778088699 | 11.11° C | 75% | 1008.6 hPa | 0 mm | - | - | - |
| 1778087800 | 11.11° C | 78% | 1008.7 hPa | 0 mm | - | - | - |
| 1778086898 | 10.56° C | 80% | 1008.7 hPa | 0 mm | - | - | - |
| 1778085998 | 10.56° C | 79% | 1008.8 hPa | 0 mm | - | - | - |
| 1778085680 | 11.11° C | 80% | 1009.1 hPa | 0 mm | - | - | - |
| 1778085098 | 10.56° C | 80% | 1009.2 hPa | 0 mm | - | - | - |
| 1778083300 | 10.56° C | 76% | 1009.6 hPa | 0 mm | - | - | - |
| 1778082400 | 10.56° C | 75% | 1009.5 hPa | 0 mm | - | - | - |
| 1778081500 | 11.11° C | 75% | 1009.6 hPa | 0 mm | - | - | - |
| 1778080599 | 11.11° C | 74% | 1010 hPa | 0 mm | - | - | - |
| 1778079699 | 11.11° C | 76% | 1010 hPa | 0 mm | - | - | - |
| 1778078798 | 11.67° C | 75% | 1010 hPa | 0 mm | - | - | - |
| 1778077899 | 11.67° C | 76% | 1009.9 hPa | 0 mm | - | - | - |
| 1778076999 | 11.11° C | 74% | 1009.9 hPa | 0 mm | - | - | - |
* Rain latest hour (hover to see other rain measurements)
** Current wind speed in m/s (hover to see current wind gust speed)